Rome, OR

10:52 AM MST on December 16, 2017 (GMT -0700)
Rome State

Weather History for KREO - January, 2003

Change the Weather History Date:

Wednesday, January 1, 2003

  Actual Average Record
Temperature  
Mean Temperature 32 °F 28 °F  
Max Temperature 44 °F 37 °F 60 °F (1997)
Min Temperature 21 °F 19 °F -13 °F (1942)
Degree Days  
Heating Degree Days 32 37  
Since 1 July heating degree days 2784  
Moisture  
Dew Point 24 °F    
Average Humidity 71    
Maximum Humidity 88    
Minimum Humidity 43    
Precipitation  
Precipitation 0.00 in 0.03 in 0.66 in (1997)
Sea Level Pressure  
Sea Level Pressure 30.30 in    
Wind  
Wind Speed 7 mph (South)    
Max Wind Speed 14 mph    
Max Gust Speed -    
T = Trace of Precipitation, MM = Missing Value Source: NWS Daily Summary

Daily Weather History Graph

Daily Weather History Graph

Search for Another Location

Airport or City:

Trip Planner

Search our weather history database for the weather conditions in past years. The results will help you decide how hot, cold, wet, or windy it might be!

Date:

Astronomy

Jan. 01, 2003 Rise Set
Actual Time 7:21 AM PST 4:28 PM PST
Civil Twilight 6:49 AM PST 5:00 PM PST
Nautical Twilight 6:14 AM PST 5:36 PM PST
Astronomical Twilight 5:39 AM PST 6:10 PM PST
Moon 6:25 AM PST (1/1) 3:21 PM PST (1/1)
Length of Visible Light 10h 11m
Length of Day
9h 07m
Waning Crescent, 1% of the Moon is Illuminated
Jan 1
Waning Crescent
Jan 2
New
Jan 10
First Quarter
Jan 18
Full
Jan 25
Last Quarter

Hourly Weather History & Observations

Time (PST) Temp. Windchill Dew Point Humidity Pressure Visibility Wind Dir Wind Speed Gust Speed Precip Events Conditions
12:52 AM 24.1 °F 18.2 °F 21.0 °F 88% 30.26 in - Variable 4.6 mph - N/A   Unknown
1:52 AM 26.1 °F 21.9 °F 23.0 °F 88% 30.29 in - Variable 3.5 mph - N/A   Unknown
2:52 AM 23.0 °F 15.8 °F 19.9 °F 88% 30.30 in - SSW 5.8 mph - N/A   Unknown
3:52 AM 25.0 °F 19.3 °F 21.9 °F 88% 30.30 in - South 4.6 mph - N/A   Unknown
4:52 AM 21.9 °F 11.7 °F 17.1 °F 82% 30.32 in - SW 9.2 mph - N/A   Unknown
5:52 AM 25.0 °F 16.3 °F 21.0 °F 85% 30.31 in - South 8.1 mph - N/A   Unknown
6:52 AM 27.0 °F 18.0 °F 23.0 °F 85% 30.32 in - SSE 9.2 mph - N/A   Unknown
7:52 AM 26.1 °F 19.4 °F 23.0 °F 88% 30.34 in - South 5.8 mph - N/A   Unknown
8:52 AM 32.0 °F 23.6 °F 25.0 °F 75% 30.35 in - SSE 10.4 mph - N/A   Unknown
9:52 AM 30.9 °F 27.5 °F 25.0 °F 79% 30.36 in - Variable 3.5 mph - N/A   Unknown
10:52 AM 34.0 °F 31.0 °F 26.1 °F 73% 30.34 in - Variable 3.5 mph - N/A   Unknown
11:52 AM 39.0 °F 35.7 °F 25.0 °F 57% 30.30 in - West 4.6 mph - N/A   Unknown
12:52 PM 42.1 °F 34.9 °F 24.1 °F 49% 30.27 in - South 13.8 mph - N/A   Unknown
1:52 PM 44.1 °F 38.1 °F 23.0 °F 43% 30.24 in - South 11.5 mph - N/A   Unknown
2:52 PM 41.0 °F 33.9 °F 24.1 °F 51% 30.27 in - South 12.7 mph - N/A   Unknown
3:52 PM 39.9 °F 33.4 °F 24.1 °F 53% 30.29 in - South 10.4 mph - N/A   Unknown
4:52 PM 39.0 °F 31.8 °F 25.0 °F 57% 30.31 in - South 11.5 mph - N/A   Unknown
5:52 PM 39.0 °F 31.0 °F 25.0 °F 57% 30.30 in - SE 13.8 mph - N/A   Unknown
6:52 PM 37.9 °F 30.5 °F 27.0 °F 65% 30.31 in - South 11.5 mph - N/A   Unknown
7:52 PM 37.9 °F 32.1 °F 27.0 °F 65% 30.32 in - SSE 8.1 mph - N/A   Unknown
8:52 PM 37.0 °F 31.6 °F 28.9 °F 73% 30.30 in - SSE 6.9 mph - N/A   Unknown
9:52 PM 37.9 °F 31.5 °F 28.0 °F 68% 30.29 in - South 9.2 mph - N/A   Unknown
10:52 PM 37.0 °F 32.4 °F 28.0 °F 70% 30.27 in - Variable 5.8 mph - N/A   Unknown
11:52 PM 33.1 °F - 28.0 °F 82% 30.27 in - Calm Calm - N/A   Unknown